SCOUT A DEB, 31407

Orbit data source: Space-Track

SCOUT A DEB, 31407 is space debris in LEO originally from a launch on Thu, 19 May 1966 UTC launched from the Air Force Western Test Range (AFWTR). Debris objects in space refer to the collection of defunct objects orbiting the Earth. Examples of debris include non-operational satellites, rocket bodies, and fragments generated from explosions, collisions, or faulty payload assembly.

Loading next visibility...
Identifier
31407, 1966-041H
Orbit
LEO
Last TLE update
2 weeks ago
Origin
Manufacturer
Unknown
Mission
Spacecraft
Bus & Motor
Unknown
Mass
Unknown
Launch date (UTC)
1966-05-19 (59 years ago)
Launch vehicle
Unknown
Launch site
Air Force Western Test Range (AFWTR)
Object type
Payload
Rocket body
Debris
Shape & HBR
Unknown
Radar Cross Section
Small (<0.1 m²)

Expand to show TLE details & history

TLE from 2 weeks ago
0 SCOUT A DEB
1 31407U 66041H   25167.44613669  .00002384  00000-0  89550-3 0  9999
2 31407  90.1998  66.4886 0057937  23.2399 337.1396 14.30486059147802
Epoch: 2025-06-16T10:42Z
TLE epoch observation values (Epoch: 2025-06-16T10:42:26.21Z)
Latitude
-0.00008°
Longitude
0.92263°
Altitude
754.936 km
Speed
7.497 km/s
True Right ascension
04h 25m 57s
True Declination
0° 00' 00"
Sunlit
Object was in daylight at epoch
Visualization orbit readout
Latitude
-48.70403°
Longitude
-178.95107°
Altitude
818.819 km
Speed
7.437 km/s
Apparent Right ascension
16h 55m 58s
Apparent Declination
-44° 37' 39"
Sunlit
Object is in full shadow
Visualization observer readout
Local Sidereal Time
05:24:37
Azimuth
134° SE
Elevation
-82.913°
Doppler factor
1
Orbital elements
Apogee altitude
828.553 km
Perigee altitude
745.527 km
Semi-major axis
7,165.177 km
Eccentricity
0.00579
Inclination
90.1998°
RAAN
66.4886°
Arg. of periapsis
23.2399°
True anomaly
Unknown
Mean anomaly
337.1396°
Eccentric anomaly
Unknown
Mean motion
3.57851 °/min
Orbital period
100.6 mins
BSTAR
0.0008955
Loading maneuver chart data...
Loading SW <> Apogee altitude chart data...
Loading historical data...
Loading historical data...
Loading historical data...
Loading historical data...
Loading historical data...
Loading historical data...
Loading historical data...

SCOUT A DEB Visibility forecast

Observer location: undefined°, undefined°

Span
Click to sort rows by Start time (UTC) header in descending order
Start Az.
Max El. time (UTC)
Max El. Az.
Max El.
End time (UTC)
End Az.
6 mins2025-07-02 03:20:58.176Z43.774° NE2025-07-02 03:23:58.176Z78.045° E15.388°2025-07-02 03:26:58.176Z113.337° SE
9 mins2025-07-02 05:00:58.176Z352.057° N2025-07-02 05:04:58.176Z279.031° WNW41.281°2025-07-02 05:09:58.176Z198.066° SSW
8 mins2025-07-02 16:18:58.176Z153.204° SSE2025-07-02 16:21:58.176Z90.233° ESE39.614°2025-07-02 16:26:58.176Z6.879° NNE
|